Regional Weather Roundup
Issued by NWS Upton, NY

Current Version | Previous Version | Text Only | Print | Product List | Glossary Off
Versions: 1 2 3 4 5 6 7 8 9 10 11 12 13 14 15 16 17 18 19 20 21 22 23 24 25 26 27 28 29 30 31 32 33 34 35 36 37 38 39 40 41 42 43 44 45 46 47 48 49 50
000 ASUS41 KOKX 311705 RWROKX REGIONAL WEATHER ROUNDUP NATIONAL WEATHER SERVICE NEW YORK NY 1200 PM EST SAT JAN 31 2015 NOTE: "FAIR" INDICATES FEW OR NO CLOUDS BELOW 12,000 FEET WITH NO SIGNIFICANT WEATHER AND/OR OBSTRUCTIONS TO VISIBILITY. NYZ071-072-176-178-NJZ106-104-311800- NEW YORK CITY METRO AREA CITY SKY/WX TMP DP RH WIND PRES REMARKS CENTRAL PARK SUNNY 21 -2 36 W10G21 30.14F WCI 10 LAGUARDIA APRT SUNNY 21 2 43 NW24G33 30.12F WCI 4 KENNEDY INTL MOSUNNY 22 -1 36 NW28G40 30.12S WCI 4 NEWARK/LIBERTY SUNNY 22 2 42 W21G30 30.15F WCI 6 BRNX BOT. GARD N/A N/A N/A N/A W15 30.13R TETERBORO SUNNY 21 -3 35 NW12G23 30.14F WCI 9 $$ NYZ177-179-078>081-311800- LONG ISLAND NEW YORK CITY SKY/WX TMP DP RH WIND PRES REMARKS FARMINGDALE FAIR 20 -2 38 NW22G31 30.08F WCI 3 ISLIP SUNNY 19 0 43 NW24G35 30.04R WCI 2 SHIRLEY SUNNY 20 -2 38 NW29G43 30.04F WCI 1 WESTHAMPTON SUNNY 19 -3 38 NW29G47 30.02R WCI 0 MONTAUK POINT N/A 19 0 43 NW21G31 29.95F WCI 3 $$ NYZ052-065-067-311800- HUDSON VALLEY CITY SKY/WX TMP DP RH WIND PRES REMARKS WHITE PLAINS SUNNY 18 -2 41 NW17G28 30.06F WCI 3 NEWBURGH SUNNY 18 0 45 NW14G23 30.11F WCI 4 MONTGOMERY SUNNY 18 -5 36 NW16 30.12F WCI 3 POUGHKEEPSIE SUNNY 19 -6 33 N13 30.12F WCI 6 ALBANY SUNNY 9 -11 40 NW18 30.17F WCI -10 $$ NJZ001-105-106-008-010-013-015-019>022-104-311800- NEW JERSEY CITY SKY/WX TMP DP RH WIND PRES REMARKS NEWARK/LIBERTY SUNNY 22 2 42 W21G30 30.15F WCI 6 TETERBORO SUNNY 21 -3 35 NW12G23 30.14F WCI 9 CALDWELL SUNNY 20 -3 36 NW17G32 30.15F WCI 5 MORRISTOWN SUNNY 21 0 39 NW14G23 30.16F WCI 8 SOMERVILLE SUNNY 22 -1 36 NW15G26 30.17F WCI 9 SUSSEX SUNNY 18 -4 37 N9G24 30.14F WCI 7 ANDOVER N/A 19 -3 38 NW12G17 30.15F WCI 7 TRENTON SUNNY 21 -1 38 NW13G23 30.19F WCI 9 MILLVILLE SUNNY 24 1 36 NW15G29 30.23F WCI 11 ATLANTIC CITY SUNNY 24 0 35 NW25G31 30.19F WCI 8 WRIGHTSTOWN SUNNY 22 1 40 NW18G28 30.17F WCI 7 TOMS RIVER SUNNY 21 1 42 NW22G38 30.17S WCI 5 BELMAR SUNNY 21 0 39 W25G32 30.13F WCI 4 $$ PAZ047>061-062-071-311800- EASTERN PENNSYLVANIA CITY SKY/WX TMP DP RH WIND PRES REMARKS PHILADELPHIA SUNNY 24 0 35 NW21G32 30.25F WCI 9 ALLENTOWN SUNNY 20 0 41 NW14G22 30.21F WCI 7 SCRANTON PTSUNNY 17 1 49 NW13G20 30.20F WCI 4 $$ CTZ002-004>006-009-010-012-RIZ004-006-007-MAZ004-011-015-311800- SOUTHERN NEW ENGLAND IN CT CITY SKY/WX TMP DP RH WIND PRES REMARKS BRADLEY INTL SUNNY 15 -7 37 NW20G32 30.01S WCI -2 HARTFORD SUNNY 15 -9 33 N14G26 30.04F WCI 0 DANBURY SUNNY 16 -9 32 NW14G25 30.07F WCI 2 WTRBRY/OXFORD SUNNY 12 -9 37 NW23G37 30.00S WCI -7 BRIDGEPORT SUNNY 19 -4 36 NW21G32 30.05F WCI 3 MERIDEN SUNNY 16 -7 35 NW21G43 30.02F WCI -1 NEW HAVEN SUNNY 18 -7 32 NW14G31 30.03F WCI 4 CHESTER FAIR 18 -9 29 NW16G35 29.96S WCI 3 GROTON SUNNY 16 -7 35 NW25G35 29.95F WCI -3 WILLIMANTIC MIX PCPN 17 -7 34 NW17G32 29.95F WCI 1 IN RI CITY SKY/WX TMP DP RH WIND PRES REMARKS PROVIDENCE MOSUNNY 19 -5 34 NW17G31 29.88F WCI 4 BLOCK ISLAND SUNNY 19 0 42 NW21G32 29.88S WCI 3 WESTERLY SUNNY 18 -7 32 NW14G25 29.93S WCI 4 IN MA CITY SKY/WX TMP DP RH WIND PRES REMARKS BOSTON MOSUNNY 17 -5 37 NW29G40 29.84S WCI -2 WORCESTER SUNNY N/A N/A N/A NW24G30 29.84R WESTFIELD SUNNY 15 -7 37 NW22G29 29.99F WCI -3 PROVINCETOWN MOSUNNY 21 10 63 NW31G39 29.77S WCI 3 NANTUCKET CLOUDY 23 8 52 NW25G38 29.74S WCI 7 $$ ANZ330-335-338-340-345-350-353-355-311800- COASTAL MARINE OBSERVATIONS STATION/POSITION TIME SKY/WX TEMP WIND PRES VSBY WAVE AIR SEA DIR/SP/G HT/PER (UTC) (F) (DEG/KT/KT) (MB) (MI) (FT/S) NY HARB ENTRANCE 1700 22 40 300/ 31/ 37 1019.1 6/ 5 4S FIRE IS NOT AVBL 20S FIRE ISLAND 1600 41 1018.8 7/ 7 23SW MTP 1700 N/A 9/ 6 HUDSON CANYON NOT AVBL EXECUTION ROCKS 1700 21 33 300/ 17/ 25 N/A WESTERN LI SOUND 1700 20 300/ 19/ 25 N/A 2/ 3 CENTRAL LI SOUND 1600 18 34 310/ 27/ 35 N/A 5/ 5 EASTERN LI SOUND NOT AVBL ROBBINS REEF 1700 20 310/ 26/ 31 1019.3 $$ >>>>>>>>>>>>>>>>>>>>>>>>>>>> KEY <<<<<<<<<<<<<<<<<<<<<<<<<<< > < > SKY/WX - SKY CONDITION/PRESENT WEATHER < > TMP - TEMPERATURE IN FAHRENHEIT < > DP - DEWPOINT IN FAHRENHEIT < > RH - RELATIVE HUMIDITY IN PERCENT < > WIND - DIRECTION AND SPEED IN MPH < > PRES - MEAN SEA LEVEL PRESSURE IN INCHES OF HG < > WCI - WIND CHILL INDEX < > VSB - VISIBILITY IN MILES < > HX - HEAT INDEX < > TC - TEMPERATURE IN CELSIUS < > VRB - VARIABLE WIND DIRECTION < > < >>>>>>>>>>>>>>>>>>>>>>>>>>>> KEY <<<<<<<<<<<<<<<<<<<<<<<<<<<

USA.gov is the U.S. government's official web portal to all federal, state and local government web resources and services.